Simultaneous Nadir Overpasses (SNOs) Predictions

Prediction of SNOs between AQUA and NOAA-19 Satellite Orbit:

Table of predicted SNOs for the next 14.0 days since TLE Epoch: 12/26/2014
Index Date (AQUA) Time (AQUA) Lat,Lon (AQUA) SZA (AQUA ) Date (NOAA-19) Time (NOAA-19) Lat,Lon (NOAA-19) SZA (NOAA-19 ) Distance(km) Time Diff (sec)
1 12/28/2014 15:26:58 -79.07, 104.09 76.80 12/28/2014 15:26:54 -79.07, 104.21 76.82 2.74 4
2 12/30/2014 20:11:18 -79.21, 32.15 76.72 12/30/2014 20:10:33 -79.22, 32.17 76.70 0.34 45
3 12/30/2014 21:00:39 78.98,-158.76 102.96 12/30/2014 21:01:26 78.98,-158.78 102.95 0.56 47
4 01/02/2015 01:44:59 79.15, 129.11 103.05 01/02/2015 01:45:06 79.16, 129.00 103.06 2.55 7
5 01/04/2015 06:29:16 79.24, 57.53 102.97 01/04/2015 06:28:43 79.24, 57.47 103.00 1.46 33
6 01/04/2015 07:18:35 -78.95,-133.07 77.43 01/04/2015 07:19:36 -78.94,-132.96 77.47 2.57 61
7 01/06/2015 11:13:32 79.31, -13.99 102.85 01/06/2015 11:12:19 79.30, -13.86 102.86 2.80 73
8 01/06/2015 12:02:52 -79.06, 155.20 77.50 01/06/2015 12:03:13 -79.05, 155.34 77.53 3.07 21
9 01/08/2015 16:47:10 -79.24, 83.03 77.51 01/08/2015 16:46:52 -79.24, 83.03 77.51 0.32 18




NCC Satellite Simultaneous Nadir Overpasses (SNOs) Prediction Service
